TimeEST,TemperatureF,Dew PointF,Humidity,Sea Level PressureIn,VisibilityMPH,Wind Direction,Wind SpeedMPH,Gust SpeedMPH,PrecipitationIn,Events,Conditions,WindDirDegrees,DateUTC
12:24 AM,55.4,55.4,100,30.05,1.8,Calm,Calm,-,N/A,,Overcast,0,2012-12-09 05:24:00
12:33 AM,55.4,55.4,100,30.05,3.0,Calm,Calm,-,N/A,,Overcast,0,2012-12-09 05:33:00
12:36 AM,55.4,55.4,100,30.05,1.8,Calm,Calm,-,N/A,,Overcast,0,2012-12-09 05:36:00
12:41 AM,55.4,55.4,100,30.06,0.8,Calm,Calm,-,N/A,,Overcast,0,2012-12-09 05:41:00
12:53 AM,54.0,53.1,97,30.04,0.5,West,3.5,-,N/A,Fog,Fog,260,2012-12-09 05:53:00
1:12 AM,55.4,55.4,100,30.05,1.5,Calm,Calm,-,N/A,,Mostly Cloudy,0,2012-12-09 06:12:00
1:18 AM,55.4,53.6,94,30.06,3.0,Calm,Calm,-,N/A,,Mostly Cloudy,0,2012-12-09 06:18:00
1:20 AM,55.4,53.6,94,30.06,1.8,Calm,Calm,-,N/A,,Mostly Cloudy,0,2012-12-09 06:20:00
1:23 AM,55.4,53.6,94,30.06,0.8,Calm,Calm,-,N/A,,Mostly Cloudy,0,2012-12-09 06:23:00
1:39 AM,55.4,53.6,94,30.06,1.8,Calm,Calm,-,N/A,,Mostly Cloudy,0,2012-12-09 06:39:00
1:43 AM,55.4,55.4,100,30.06,3.0,WSW,3.5,-,N/A,,Mostly Cloudy,240,2012-12-09 06:43:00
1:53 AM,55.9,55.0,97,30.04,5.0,Calm,Calm,-,N/A,,Overcast,0,2012-12-09 06:53:00
2:12 AM,55.4,55.4,100,30.06,2.0,Calm,Calm,-,N/A,,Overcast,0,2012-12-09 07:12:00
2:25 AM,55.4,55.4,100,30.06,3.0,Calm,Calm,-,N/A,,Overcast,0,2012-12-09 07:25:00
2:33 AM,55.4,55.4,100,30.06,2.5,Calm,Calm,-,N/A,,Overcast,0,2012-12-09 07:33:00
2:41 AM,55.4,55.4,100,30.06,4.0,Calm,Calm,-,N/A,,Overcast,0,2012-12-09 07:41:00
2:53 AM,55.9,55.9,100,30.04,3.0,Calm,Calm,-,N/A,,Overcast,0,2012-12-09 07:53:00
3:06 AM,55.4,55.4,100,30.06,1.8,Calm,Calm,-,N/A,,Overcast,0,2012-12-09 08:06:00
3:13 AM,55.4,55.4,100,30.05,0.8,Calm,Calm,-,N/A,,Mostly Cloudy,0,2012-12-09 08:13:00
3:19 AM,55.4,55.4,100,30.05,1.0,Calm,Calm,-,N/A,,Mostly Cloudy,0,2012-12-09 08:19:00
3:26 AM,55.4,55.4,100,30.05,2.0,Calm,Calm,-,N/A,,Mostly Cloudy,0,2012-12-09 08:26:00
3:37 AM,55.4,55.4,100,30.05,4.0,SSW,3.5,-,N/A,,Mostly Cloudy,200,2012-12-09 08:37:00
3:53 AM,55.9,55.0,97,30.04,5.0,South,4.6,-,N/A,,Overcast,190,2012-12-09 08:53:00
4:53 AM,55.9,55.0,97,30.04,3.0,Calm,Calm,-,N/A,,Overcast,0,2012-12-09 09:53:00
5:30 AM,55.4,55.4,100,30.05,5.0,South,6.9,-,0.00,,Mostly Cloudy,180,2012-12-09 10:30:00
5:37 AM,55.4,55.4,100,30.06,5.0,South,5.8,-,0.00,,Mostly Cloudy,190,2012-12-09 10:37:00
5:53 AM,55.9,55.0,97,30.05,6.0,South,5.8,-,0.00,,Scattered Clouds,180,2012-12-09 10:53:00
6:23 AM,55.4,55.4,100,30.07,5.0,Calm,Calm,-,N/A,,Overcast,0,2012-12-09 11:23:00
6:53 AM,55.9,55.0,97,30.07,5.0,South,3.5,-,N/A,,Overcast,170,2012-12-09 11:53:00
7:53 AM,55.0,55.0,100,30.07,5.0,South,6.9,-,N/A,,Overcast,170,2012-12-09 12:53:00
8:53 AM,57.0,55.9,96,30.08,5.0,South,6.9,-,N/A,,Overcast,190,2012-12-09 13:53:00
9:13 AM,57.2,55.4,94,30.10,6.0,South,5.8,-,N/A,,Mostly Cloudy,190,2012-12-09 14:13:00
9:20 AM,57.2,55.4,94,30.09,7.0,South,4.6,-,N/A,,Scattered Clouds,180,2012-12-09 14:20:00
9:53 AM,60.1,57.0,90,30.09,8.0,South,4.6,-,N/A,,Scattered Clouds,190,2012-12-09 14:53:00
10:19 AM,64.4,59.0,83,30.10,10.0,Variable,3.5,-,N/A,,Mostly Cloudy,0,2012-12-09 15:19:00
10:53 AM,64.9,57.9,78,30.08,10.0,SSW,5.8,-,N/A,,Mostly Cloudy,200,2012-12-09 15:53:00
11:53 AM,64.9,57.9,78,30.06,10.0,Variable,3.5,-,N/A,,Overcast,0,2012-12-09 16:53:00
12:53 PM,70.0,59.0,68,30.03,10.0,SSW,6.9,-,N/A,,Partly Cloudy,210,2012-12-09 17:53:00
1:21 PM,68.0,57.2,68,30.05,10.0,SW,13.8,-,N/A,,Mostly Cloudy,220,2012-12-09 18:21:00
1:53 PM,69.1,57.9,68,30.02,10.0,West,8.1,-,N/A,,Mostly Cloudy,260,2012-12-09 18:53:00
2:49 PM,69.8,57.2,64,30.03,10.0,SW,8.1,-,N/A,,Mostly Cloudy,230,2012-12-09 19:49:00
2:53 PM,69.1,57.9,68,30.01,10.0,SSW,10.4,-,N/A,,Mostly Cloudy,210,2012-12-09 19:53:00
3:53 PM,66.9,57.0,70,30.01,10.0,WSW,6.9,-,N/A,,Partly Cloudy,240,2012-12-09 20:53:00
4:53 PM,66.2,57.2,73,30.03,10.0,SW,5.8,-,N/A,,Partly Cloudy,220,2012-12-09 21:53:00
5:53 PM,63.0,57.0,81,30.01,10.0,Calm,Calm,-,N/A,,Mostly Cloudy,0,2012-12-09 22:53:00
6:53 PM,61.0,57.0,87,30.02,10.0,SSW,4.6,-,N/A,,Overcast,210,2012-12-09 23:53:00
7:53 PM,61.0,57.0,87,30.01,10.0,South,5.8,-,N/A,,Overcast,180,2012-12-10 00:53:00
8:53 PM,57.9,55.9,93,30.00,5.0,South,5.8,-,N/A,,Mostly Cloudy,190,2012-12-10 01:53:00
9:23 PM,57.2,57.2,100,30.01,1.2,SW,4.6,-,N/A,,Overcast,220,2012-12-10 02:23:00
9:34 PM,57.2,57.2,100,30.01,2.0,SSW,5.8,-,N/A,,Overcast,210,2012-12-10 02:34:00
9:42 PM,57.2,57.2,100,30.00,4.0,SSW,4.6,-,N/A,,Overcast,200,2012-12-10 02:42:00
9:51 PM,57.2,57.2,100,30.00,4.0,SSW,3.5,-,N/A,,Overcast,200,2012-12-10 02:51:00
9:53 PM,57.9,57.0,97,29.98,4.0,SSW,3.5,-,N/A,,Overcast,200,2012-12-10 02:53:00
10:53 PM,59.0,57.9,96,29.98,6.0,SW,4.6,-,N/A,,Overcast,230,2012-12-10 03:53:00
11:53 PM,57.9,57.0,97,29.98,6.0,SW,4.6,-,N/A,,Overcast,230,2012-12-10 04:53:00